Flag for U.S.A. Weather past 2 weeks in Sunnyvale, California, U.S.A.

Now
44 °F

Clear.


Feels Like: 44 °F
Forecast: 42 / 65 °F
Wind: No wind

Location: Moffett Field

Current Time: Feb 1, 2015 at 6:52:25 AM

Latest Report: Feb 1, 2015 at 5:56 AM


Visibility: 10 mi

Pressure: 30.11 "Hg

Humidity: 73%

Dew point: 36 °F

Location of SunnyvaleLocation

Historic Weather in Sunnyvale — Graph

°F

Sunnyvale temperature yesterday

Maximum temperature yesterday: 73 °F (at 2:56 PM)
Minimum temperature yesterday: 45 °F (at 4:56 AM)
Average temperature yesterday: 58 °F

Past Weeks' High & Low Weather Summary

 TemperatureHumidityPressure
High73 °F (Jan 31, 2:56 PM)97% (Jan 19, 5:56 AM)30.38 "Hg (Jan 19, 5:56 AM)
Low41 °F (Jan 23, 5:56 AM)17% (Jan 31, 2:56 PM)29.91 "Hg (Jan 30, 3:56 PM)
Average54 °F71%30.16 "Hg
* Reported Jan 17 5:56 AM — Feb 1 5:56 AM, Sunnyvale, Weather by CustomWeather, © 2014

Note: Actual official high and low records may vary slightly from our data, if they occured in-between our weather recording intervals... More about our weather records

Advertising

Sunnyvale weather history for previous 24 hours

 ConditionsComfort  
Time TempWeatherWind HumidityBarometerVisibility
5:56 AM
Feb 1
44 °FClear.No wind73%30.11 "Hg10 mi
4:56 AM45 °FClear.No wind65%30.10 "Hg10 mi
3:56 AM45 °FClear.No wind63%30.09 "Hg10 mi
2:56 AM47 °FClear.No wind59%30.09 "Hg10 mi
1:56 AM48 °FClear.No wind54%30.07 "Hg10 mi
12:56 AM50 °FClear.3 mph48%30.07 "Hg10 mi
11:56 PM
Jan 31
51 °FClear.No wind48%30.07 "Hg10 mi
10:56 PM52 °FClear.No wind49%30.06 "Hg10 mi
9:56 PM50 °FClear.No wind52%30.05 "Hg10 mi
8:56 PM53 °FClear.No wind45%30.03 "Hg10 mi
7:56 PM57 °FClear.No wind39%30.01 "Hg10 mi
6:56 PM62 °FClear.3 mph31%30.01 "Hg10 mi
5:56 PM65 °FClear.No wind27%29.99 "Hg10 mi
4:56 PM70 °FSunny.No wind20%29.98 "Hg10 mi
3:56 PM73 °FSunny.6 mph21%29.97 "Hg10 mi
2:56 PM73 °FSunny.6 mph17%29.97 "Hg10 mi
1:56 PM71 °FSunny.6 mph18%29.97 "Hg10 mi
12:56 PM71 °FSunny.No wind19%29.97 "Hg10 mi
11:56 AM68 °FSunny.No wind20%30.00 "Hg10 mi
10:56 AM67 °FSunny.5 mph21%30.01 "Hg10 mi
9:56 AM64 °FSunny.No wind26%30.01 "Hg10 mi
8:56 AM59 °FSunny.5 mph46%30.00 "Hg10 mi
7:56 AM50 °FSunny.3 mph66%29.97 "Hg10 mi
6:56 AM47 °FClear.3 mph74%29.96 "Hg10 mi
Weather by CustomWeather, © 2014

See weather overviewHow to use our weather pages